Tracking 19193 objects as of 23-Jun-2018
HD Live streaming from Space Station
objects crossing your sky now

FENGYUN 1C DEB

Track FENGYUN 1C DEB now!
10-day predictions


NORAD ID: 31456
Int'l Code: 1999-025BUU
Perigee: 736.7 km
Apogee: 856.5 km
Inclination: 98.6 °
Period: 100.7 minutes
Semi major axis: 7167 km
RCS: 0.0099 m2 (small)
Launch date: May 10, 1999
Source: People's Republic of China (PRC)
Launch site: Taiyaun Space Center, China (TSC)

Note: This is SATELLITE DEBRIS
aabbcc
Your satellite tracking list
Your tracking list is empty




NASA's NSSDC Master Catalog

Two Line Element Set (TLE):
1 31456U 99025BUU 18173.02242759 +.00000226 +00000-0 +99344-4 0  9998
2 31456 098.6416 256.4396 0083517 106.9479 254.0879 14.30682679583399
Source of the keplerian elements: AFSPC